Simultaneous Nadir Overpasses (SNOs) Predictions

Prediction of SNOs between METOP-A and TERRA Satellite Orbit:

Table of predicted SNOs for the next 14.0 days since TLE Epoch: 9/18/2021
Index Date (METOP-A) Time (METOP-A) Lat,Lon (METOP-A) SZA (METOP-A ) Date (TERRA) Time (TERRA) Lat,Lon (TERRA) SZA (TERRA ) Distance(km) Time Diff (sec)
1 09/19/2021 14:00:54 81.27, 14.49 82.71 09/19/2021 14:01:38 81.28, 14.66 82.75 2.93 44
2 09/19/2021 14:51:34 -81.26,-177.88 97.26 09/19/2021 14:51:05 -81.27,-177.79 97.25 1.95 29
3 09/22/2021 09:35:14 81.27, 80.90 83.82 09/22/2021 09:35:51 81.26, 80.88 83.83 0.83 37
4 09/22/2021 10:25:54 -81.26,-111.44 96.14 09/22/2021 10:25:18 -81.26,-111.54 96.17 1.81 36
5 09/25/2021 05:09:33 81.27, 147.30 84.94 09/25/2021 05:10:02 81.27, 147.43 84.97 2.23 29
6 09/25/2021 06:00:13 -81.25, -45.01 95.03 09/25/2021 05:59:29 -81.27, -44.96 95.03 2.04 44
7 09/28/2021 00:43:53 81.27,-146.31 86.05 09/28/2021 00:44:15 81.25,-146.42 86.04 2.23 22
8 09/28/2021 01:34:33 -81.25, 21.39 93.91 09/28/2021 01:33:42 -81.25, 21.22 93.96 2.97 51
9 09/30/2021 20:18:13 81.26, -79.94 87.15 09/30/2021 20:18:27 81.26, -79.93 87.16 0.93 14



Historial Predications of SNOs between METOP-A and TERRA
